Location: Orient Land Trust / Valley View Hot Springs
(38.1923°N, 105.8154°W)
Time: 14:59:18
(UTC-06:00)

N. Korean satellite - Visible Passes

Search period start: 18 September 2020 00:00
Search period end: 28 September 2020 00:00
Orbit: 455 x 503 km, 97.2° (Epoch: 17 September)

Date Brightness Start Highest point End Pass type
(mag) Time Alt. Az. Time Alt. Az. Time Alt. Az.
18 Sep 9.9 05:36:57 10° ENE 05:38:47 13° E 05:40:36 10° ESE visible
20 Sep 7.9 06:16:48 10° NNE 06:20:20 45° E 06:23:47 10° S visible
21 Sep 9.5 05:51:26 10° NE 05:54:13 21° E 05:56:58 10° SE visible
24 Sep 8.6 06:06:18 10° NNE 06:09:36 32° E 06:12:49 10° SSE visible
25 Sep 9.8 05:41:16 10° NE 05:43:26 15° E 05:45:33 10° SE visible
27 Sep 7.5 06:21:22 10° NNE 06:24:54 53° E 06:28:22 10° S visible
